Погода в Чувашской Сорме

Россия / Чувашская Республика     55°49′18″N   46°50′00″E
темп.,
°C
ветер,
м/с
пор.,
м/с
влажн.,
%
обл.,
%
осадки,
мм/ч
давл.,
гПа
погр.,
м
18 апреля, вс
вс1800:00+4всв511810 0.0 1023231
03:00+3всв49850 0.0 1024155
06:00+3всв38800 0.0 1023183
09:00+9всв58550 0.0 1022726
12:00+12всв67445 0.0 10221502
15:00+13всв67429 0.0 10221891
18:00+9всв9127037 0.0 1023816
21:00+5всв7137376 0.0 1025568
19 апреля, пн
пн1900:00+3всв71265100 0.0 1026481
03:00+1всв61268100 0.0 1027453
06:00+1всв71466100 0.0 1027626
09:00+3в91250100 0.0 1028949
12:00+6в91237100 0.0 10281432
15:00+7в91236100 0.0 10271610
18:00+6в71241100 0.0 10281076
21:00+3в7154364 0.0 1029594
20 апреля, вт
вт2000:00+1в614495 0.0 1029456
03:000в6135741 0.0 1030361
06:000в613605 0.0 1030391
09:00+6вюв811440 0.0 1030932
12:00+8вюв810340 0.0 10301354
15:00+9вюв8103351 0.0 10281391
18:00+7вюв71240100 0.0 1026660
21:00+4вюв61647100 0.0 1026488
21 апреля, ср
ср2100:00+4вюв71748100 0.0 1025635
03:00+3юв81750100 0.0 1024706
06:00+3юв101951100 0.1 1022738
09:00+4юв101950100 0.2 1021808
12:00+2юв101981100 2.2 1022792
15:00+1юв101993100 5.3 1021808
18:00+2ююв91792100 1.1 1021718
21:00+3ююв81593100 1.4 1021637
22 апреля, чт
чт2200:00+3ююв61495100 0.5 1021567
03:00+3ю51196100 0.7 1022439
06:00+4ю4896100 0.0 1023376
09:00+7ю468697 0.0 1024448
12:00+9ю677868 0.2 1024875
15:00+11юз366725 0.5 10241130
18:00+10ю477598 0.3 1025195
21:00+8ю2278100 0.3 102616